Wind_Speed
28 28 27 28 28 28 28 28 28 28 27 26 25 24 23 22 22 20 19 18 17 17 17 17 17 17 17 17 18 19 20 21 21 22 23 24 26 28 30 31 32 32 33 34 35 36 37 38 36 34 33 32 33 33 33 34 34 35 35 35 34 34 34 33 32 32 33 34 34 33 32 30 27 27 28 31 35 37 38 40 40 41 42 42 42 41 41 41
29 29 29 29 30 30 29 29 29 29 28 28 27 26 25 24 23 22 20 19 18 17 17 17 17 16 17 18 18 19 21 21 22 22 23 25 27 30 32 33 33 34 34 35 36 37 39 39 37 34 32 31 31 32 31 32 32 33 33 33 33 33 33 33 32 31 31 32 33 34 34 32 30 29 30 31 34 37 39 41 42 43 43 43 42 41 41 41
31 30 30 31 31 31 31 31 30 30 30 29 29 28 26 25 25 23 22 21 19 18 18 17 17 17 17 18 19 19 20 21 22 23 24 26 28 31 32 33 34 35 35 36 37 38 39 40 39 36 33 32 32 32 31 31 31 31 31 31 31 31 30 31 30 29 29 29 30 31 33 33 32 30 31 33 34 37 40 42 43 44 43 43 42 41 41 41
32 32 32 32 33 33 33 32 32 32 31 31 30 29 28 27 26 25 23 22 21 19 19 18 18 18 18 18 19 20 20 22 23 24 25 27 29 31 32 34 35 35 36 36 37 38 39 40 39 37 35 34 34 33 32 31 31 31 31 31 31 30 30 30 30 29 29 28 28 29 30 31 32 31 31 33 35 38 40 42 43 43 42 42 41 41 41 42
33 34 34 34 34 35 34 34 34 33 33 32 32 31 30 29 27 26 25 23 22 21 20 19 19 19 19 19 19 20 21 22 23 25 26 28 30 31 33 34 35 36 36 37 38 39 39 39 38 35 34 34 34 34 34 32 32 32 32 33 33 32 31 31 32 31 30 29 29 28 28 30 32 33 33 34 37 39 41 42 42 41 41 40 40 41 42 44
34 35 36 36 36 36 36 36 35 35 35 34 33 33 32 31 29 27 26 24 23 22 21 21 20 20 20 20 21 21 22 23 24 25 27 28 30 32 33 34 35 36 36 37 38 39 39 40 37 34 33 33 33 34 34 34 33 33 34 34 35 35 34 34 34 33 32 31 31 30 29 30 32 34 35 37 38 39 40 40 40 39 39 39 40 42 44 45
35 36 37 38 38 38 38 38 37 37 37 36 35 34 33 32 31 29 27 26 24 23 22 22 22 21 21 22 22 22 23 24 25 26 27 29 31 32 34 35 36 36 37 38 38 39 39 39 37 33 32 32 32 33 34 34 34 34 34 35 36 37 37 36 36 36 35 35 34 33 33 33 35 37 38 40 40 40 40 39 39 39 40 41 43 44 45 46
36 37 39 39 39 40 40 39 39 39 38 38 36 36 35 34 32 31 29 27 26 25 24 24 23 23 23 23 23 24 24 25 26 26 28 30 32 34 35 36 37 37 38 38 38 39 40 39 36 32 31 31 32 33 33 34 34 34 34 35 36 37 38 38 38 38 38 37 36 36 35 35 36 38 40 40 40 40 40 39 40 41 43 44 45 46 46 47
36 38 39 40 41 41 41 41 41 40 40 39 38 37 36 35 34 32 30 28 27 27 26 25 25 25 24 25 25 25 26 26 27 27 28 31 33 35 36 37 37 38 39 38 38 39 40 40 37 33 31 32 32 33 33 33 34 34 35 35 36 37 39 40 41 41 40 38 37 36 35 35 36 37 38 39 40 41 42 42 43 44 45 46 46 47 48 49
37 38 40 41 42 42 42 42 42 42 41 40 39 38 37 36 35 33 32 30 29 28 27 27 27 26 26 26 26 27 27 28 28 29 30 32 34 36 37 38 38 38 39 38 38 40 41 41 38 34 32 33 33 34 33 32 33 34 35 36 37 39 40 41 41 41 40 39 37 35 34 34 35 37 37 38 40 42 43 44 44 44 45 46 47 48 49 50
38 39 40 42 42 43 43 43 43 42 42 41 40 39 38 37 36 34 33 31 30 30 29 29 29 28 27 27 28 28 29 29 29 30 31 33 35 37 38 39 39 39 39 39 39 40 42 42 40 36 33 33 34 34 33 33 33 33 35 36 38 39 40 40 39 39 38 37 36 34 33 32 33 36 37 37 39 40 41 43 44 45 47 48 49 50 50 51
40 40 41 42 43 44 44 44 43 43 42 42 40 40 38 37 36 35 34 32 32 31 31 31 30 29 29 28 29 30 30 30 31 32 32 33 35 37 39 40 40 40 40 39 39 41 42 43 42 38 34 34 34 34 34 34 33 34 35 36 37 38 38 38 37 37 36 34 34 33 32 31 31 33 35 36 38 39 40 42 45 47 49 50 50 51 51 52
41 41 41 42 43 44 45 45 44 44 43 42 40 40 39 37 36 35 34 34 33 33 32 32 32 31 30 30 30 31 32 32 32 33 33 33 36 38 40 41 41 41 41 40 40 41 42 43 43 41 36 34 33 33 33 34 34 34 35 36 37 38 38 38 37 36 35 34 33 32 32 32 31 32 34 35 37 39 42 44 47 49 50 50 51 52 53 53
41 42 42 43 44 45 45 45 45 44 44 42 41 40 39 38 37 36 35 35 34 34 34 33 33 32 31 31 31 32 33 33 33 33 33 34 36 39 41 42 43 42 42 41 40 42 43 44 44 42 39 36 34 33 33 34 34 34 35 36 37 38 39 39 38 37 37 37 36 35 35 35 35 35 36 39 41 42 44 47 48 48 48 49 51 52 54 54
42 42 43 43 44 45 45 45 45 45 44 43 41 40 39 38 37 36 36 36 35 35 35 34 34 34 33 32 32 33 35 35 34 34 34 35 37 40 42 44 44 44 43 42 42 43 44 44 44 43 40 38 36 34 34 35 35 36 36 37 37 38 39 40 40 40 40 39 40 38 38 39 39 39 41 43 44 44 45 46 47 47 48 49 51 53 54 55
43 43 43 44 44 45 45 45 45 45 44 43 42 40 39 39 37 37 37 36 35 35 35 35 35 35 34 34 34 35 36 36 36 35 37 38 39 42 44 46 46 45 44 43 43 45 45 45 43 42 41 39 38 37 36 36 37 37 39 39 39 39 39 40 40 40 40 40 40 39 39 41 41 41 43 44 45 45 45 47 48 48 50 51 53 54 55 57
43 43 43 43 44 45 45 45 45 45 44 43 42 40 39 39 38 37 37 37 36 36 36 36 36 35 36 36 36 37 38 39 38 38 39 40 42 43 45 47 46 45 44 44 45 46 46 45 43 42 40 40 39 38 38 38 38 39 40 41 42 42 40 39 38 39 39 40 41 40 40 43 43 43 44 46 47 47 48 49 50 51 52 54 55 56 58 59
42 42 43 43 43 44 45 45 46 45 45 44 43 41 40 40 39 38 38 38 37 36 37 37 36 37 38 38 38 39 40 41 40 40 41 42 43 44 46 46 45 44 44 45 47 48 47 44 43 41 40 39 39 38 38 38 39 41 42 42 43 43 42 40 39 39 39 40 43 42 42 46 47 46 47 47 48 50 51 51 51 53 55 56 58 60 61 63
41 42 42 43 43 44 45 46 46 46 46 45 44 43 41 40 40 39 39 39 38 37 37 38 37 38 39 40 41 42 42 43 42 42 43 43 44 45 46 45 44 44 45 46 48 49 47 45 43 41 39 38 38 38 37 38 39 41 42 43 43 44 45 44 42 42 41 42 45 45 44 48 50 48 48 48 49 51 51 51 52 55 56 58 60 62 64 66
40 41 41 42 43 44 45 46 46 46 47 46 45 44 43 42 41 40 40 40 39 38 38 38 39 39 41 43 44 44 44 45 44 43 44 44 45 46 46 45 44 44 45 47 49 49 47 45 43 40 39 38 38 38 38 39 40 41 42 43 44 44 46 47 45 44 44 44 46 47 46 49 50 49 49 49 50 50 51 52 54 55 56 58 61 63 65 68
38 39 40 42 42 43 44 45 46 46 47 47 46 45 44 44 42 41 41 41 40 40 40 40 40 41 43 44 45 45 46 46 45 45 45 45 45 46 46 46 45 44 46 48 49 49 47 44 42 41 39 39 39 39 40 41 42 43 43 44 45 45 45 47 47 46 46 45 47 47 46 48 51 50 50 49 50 51 53 55 56 56 58 60 62 64 67 69
37 38 39 40 42 43 44 45 46 45 46 47 47 46 45 44 44 43 42 43 42 41 42 42 42 44 46 46 46 46 46 47 47 46 46 46 46 46 46 46 45 45 46 47 49 50 48 44 43 42 41 41 41 40 41 43 44 44 44 44 46 46 46 47 48 48 47 47 48 48 47 48 50 51 50 50 51 53 54 55 56 57 59 61 63 65 67 70
38 38 39 39 40 42 43 44 45 45 46 47 47 47 46 46 45 44 43 44 45 44 44 43 44 46 48 48 47 47 48 49 48 47 46 46 47 47 46 46 45 45 46 48 49 51 49 45 43 43 42 42 42 42 43 44 46 46 45 45 46 47 47 47 48 48 49 49 49 48 46 45 48 51 53 53 53 54 56 56 58 59 61 63 64 66 67 70
39 39 39 39 40 41 42 44 45 45 46 46 47 48 47 47 46 45 44 43 46 49 47 46 46 49 50 49 49 48 49 49 48 47 47 47 47 47 46 46 46 47 47 48 51 52 51 47 45 44 43 44 44 44 45 45 47 49 48 47 47 49 49 48 48 48 49 50 50 50 44 39 45 53 57 58 57 57 59 60 61 62 63 64 64 65 67 69
41 40 40 40 41 41 42 43 44 45 46 46 47 48 48 48 46 46 46 43 45 50 50 48 49 52 52 51 50 49 49 50 49 48 47 47 47 47 47 48 48 48 48 49 51 53 53 50 48 47 47 46 46 47 47 47 48 50 51 50 50 51 51 51 50 49 49 49 52 55 46 36 43 55 59 60 61 61 62 63 63 64 64 64 63 64 68 71
45 43 42 42 42 42 42 43 45 45 45 46 47 48 48 48 48 47 47 45 44 49 52 51 52 54 53 52 51 50 50 50 49 48 48 48 48 48 49 50 51 50 50 50 51 54 54 53 52 51 51 50 49 49 49 49 49 51 53 53 54 55 55 54 54 52 50 48 52 58 51 39 41 54 60 60 61 62 63 64 64 65 65 64 64 67 70 73
47 46 45 45 44 43 43 44 46 46 46 47 47 49 49 48 49 48 48 46 43 48 53 53 54 54 52 52 52 51 51 51 49 49 49 49 49 50 51 52 53 52 52 52 52 54 54 54 55 54 54 54 52 52 52 51 51 52 53 54 57 58 58 58 57 56 53 49 54 60 56 45 42 52 60 60 60 62 64 65 65 65 65 64 67 71 72 74
50 49 48 47 47 46 46 46 46 46 47 47 48 49 49 49 49 48 49 47 41 45 52 53 54 53 53 53 52 52 52 51 50 49 49 50 50 51 53 54 55 54 54 54 53 55 55 55 56 55 54 55 54 54 54 54 53 53 54 55 57 59 60 61 60 60 56 51 56 61 59 51 45 52 62 60 61 65 66 66 66 66 66 67 71 72 72 74
53 51 50 49 49 49 49 48 48 48 48 48 49 49 49 49 49 48 49 46 41 46 51 53 53 53 54 53 52 51 51 51 50 50 50 51 51 53 55 56 57 56 56 56 55 56 56 56 56 54 54 55 55 55 56 56 56 56 56 57 59 59 60 61 61 63 60 55 59 61 60 55 48 53 64 63 64 68 68 68 68 67 68 70 72 72 73 75
56 55 53 52 52 52 51 51 51 51 51 51 50 50 50 49 49 49 48 45 45 49 52 52 54 54 54 53 52 51 51 51 51 51 51 52 53 55 57 58 59 58 58 58 57 57 57 57 56 55 55 55 56 57 57 58 58 59 59 59 60 60 61 62 62 65 62 58 61 62 61 59 51 54 63 65 67 70 70 70 69 69 70 71 72 73 75 77
59 58 57 56 56 55 54 54 53 53 53 53 52 52 52 51 50 50 48 47 51 53 52 54 55 54 54 53 52 51 52 52 52 52 53 53 55 57 60 61 61 60 60 61 60 58 58 58 57 57 58 58 58 59 59 60 61 62 63 62 62 63 63 63 64 66 65 62 63 62 61 59 54 56 62 65 68 71 71 71 71 71 72 73 74 76 77 79
62 61 60 60 59 59 59 58 57 56 56 55 54 53 53 53 51 49 49 52 55 53 52 54 54 54 54 52 52 53 53 54 54 54 55 55 56 59 62 64 65 64 61 63 63 60 59 59 60 60 60 61 62 63 63 63 64 66 67 66 65 66 66 65 65 67 66 65 65 63 61 57 55 58 62 66 69 71 72 73 73 73 74 75 76 78 80 82
65 64 63 62 62 63 63 62 61 61 60 59 57 55 55 54 50 48 51 55 56 55 54 55 54 54 54 53 53 55 56 56 57 57 57 57 58 60 64 67 69 68 66 65 64 62 59 59 62 63 63 64 65 65 66 66 68 69 70 70 70 71 70 68 69 70 68 66 65 64 62 57 56 58 62 68 71 72 73 75 75 76 75 76 78 80 83 85
67 66 66 65 65 66 66 66 65 65 64 63 61 59 57 54 50 51 53 55 57 57 56 57 56 56 55 54 55 57 59 59 59 60 60 60 61 63 66 69 72 72 72 70 67 64 59 58 62 64 64 65 66 67 67 68 70 71 71 72 72 74 75 74 73 73 71 67 64 64 62 58 58 60 64 70 72 73 76 78 78 77 76 78 81 83 85 86
68 68 67 67 68 69 69 69 68 68 68 66 65 62 58 55 54 56 57 57 59 59 58 59 59 58 57 57 58 59 62 62 61 63 64 63 64 64 66 71 73 74 76 75 72 68 62 59 61 63 64 66 66 67 68 69 72 72 71 73 74 74 76 77 76 74 74 69 63 62 62 59 60 62 66 72 73 76 80 80 79 78 78 81 84 85 87 88
68 67 67 69 71 72 72 71 71 72 71 69 67 62 58 57 59 60 60 61 63 63 62 62 60 61 61 61 61 63 65 65 64 65 66 66 66 65 68 72 74 76 79 79 77 73 66 61 61 63 65 66 66 67 69 72 73 73 73 75 76 75 77 77 76 74 75 72 65 62 61 59 61 63 68 74 76 79 83 81 79 80 82 84 85 87 88 89
68 67 66 68 72 73 73 73 74 74 73 73 69 62 59 60 61 62 64 65 67 67 66 65 64 65 65 65 65 66 68 68 67 68 68 68 67 67 70 74 75 78 81 82 80 77 72 65 61 64 65 64 66 68 70 73 74 74 76 77 77 77 77 77 77 75 75 75 69 64 62 61 63 66 70 76 79 81 83 82 81 83 84 85 87 88 90 91
70 67 65 66 72 74 74 75 75 75 75 73 67 63 64 64 63 66 69 70 70 69 69 68 67 68 68 67 68 69 71 71 70 71 71 70 70 69 72 75 77 80 82 84 81 78 76 69 62 62 64 65 66 69 72 74 75 76 78 78 79 79 78 77 78 77 77 79 75 69 66 63 64 69 73 77 79 82 84 84 84 85 85 86 88 90 92 93
71 69 66 67 74 76 74 74 76 75 74 68 63 64 65 65 67 71 73 73 73 72 71 70 71 72 70 70 71 72 74 74 74 74 74 73 72 72 73 76 78 80 82 83 81 78 77 72 63 61 64 65 67 70 72 74 76 78 79 80 80 80 80 78 79 79 80 83 82 78 73 66 65 71 75 76 79 83 85 86 86 86 86 88 90 92 93 94
74 73 69 69 77 80 77 76 76 73 70 64 61 61 61 63 68 71 74 76 76 75 74 73 75 75 74 74 75 76 78 78 77 77 76 74 74 74 74 75 78 81 82 81 80 78 77 74 67 63 64 66 67 70 71 73 77 80 81 81 80 81 82 80 79 79 82 85 84 85 84 71 66 72 75 76 81 85 87 88 86 87 88 90 92 94 95 96
79 76 72 74 81 84 83 81 76 72 69 64 61 62 62 65 67 68 73 76 76 76 75 75 75 75 75 76 76 78 80 79 77 77 75 74 74 74 75 76 78 81 82 81 79 78 79 76 70 66 66 66 66 69 71 73 78 81 81 80 81 83 84 83 82 80 84 87 85 90 90 73 68 78 79 79 83 87 89 87 86 88 91 93 95 96 97 97
82 79 76 78 83 86 87 84 78 74 71 66 65 67 69 68 67 67 70 73 75 76 76 75 74 74 74 74 76 78 78 77 75 74 74 73 74 75 76 78 80 81 82 81 80 80 81 78 73 70 68 67 67 68 71 75 79 81 80 80 83 85 85 86 86 83 86 87 85 93 91 75 74 84 83 81 85 89 89 88 88 92 94 96 97 98 98 100
83 82 81 82 83 85 87 84 79 77 74 71 71 72 72 70 68 68 70 73 75 76 77 75 73 73 73 74 76 76 77 76 74 73 75 75 75 76 78 81 83 83 83 82 81 82 82 80 77 73 70 70 69 70 73 78 82 81 80 82 85 86 87 88 88 88 90 87 88 96 91 80 82 87 83 84 89 91 90 90 92 95 97 98 100 100 101 103
88 87 85 84 85 86 86 82 80 80 78 78 78 76 75 74 71 69 71 74 76 76 76 74 73 73 74 75 76 76 77 77 76 76 78 78 77 78 81 84 85 84 84 83 83 84 83 82 80 77 75 72 70 72 77 81 83 82 81 84 86 87 90 90 90 93 91 85 90 97 91 86 88 87 85 90 95 94 93 95 97 99 100 101 102 102 104 105
94 92 88 87 88 88 86 83 84 84 82 81 82 80 80 78 74 73 74 75 76 77 76 75 75 76 77 77 78 78 79 80 81 81 80 80 79 80 84 86 86 85 85 85 86 86 86 83 81 82 82 78 73 75 81 83 84 83 83 85 87 89 92 92 93 96 91 89 94 94 91 91 90 88 91 97 99 98 98 100 102 103 104 103 104 106 107 107
98 95 91 90 91 90 88 88 90 89 85 85 86 84 82 80 78 78 78 77 77 78 79 78 79 79 78 78 81 83 83 83 85 84 81 81 83 85 88 89 88 87 87 88 89 89 88 85 83 85 86 83 79 80 85 87 87 86 85 86 89 92 93 94 97 97 95 98 98 93 95 97 91 90 98 102 103 103 103 104 106 106 106 106 107 109 109 109
99 94 90 91 94 93 90 91 92 91 89 91 90 84 80 79 78 78 79 79 80 82 82 81 80 79 80 82 86 87 85 85 86 84 83 84 87 90 91 89 88 89 89 91 91 91 91 88 85 87 88 85 84 86 90 92 91 89 88 89 92 94 95 97 100 99 99 104 101 94 99 100 93 94 104 107 106 107 107 108 108 107 107 108 110 112 111 112
99 94 92 94 98 96 93 92 93 94 94 94 90 84 79 77 76 77 79 82 84 84 85 84 82 82 85 88 90 89 85 84 86 87 88 91 92 93 92 89 88 89 90 92 92 92 93 89 86 89 90 87 87 89 94 96 94 92 89 90 93 96 97 100 101 99 102 106 103 98 101 100 95 100 109 110 109 110 111 111 109 109 110 111 113 114 113 114
101 97 96 98 100 99 96 95 97 98 96 95 93 86 79 77 77 79 82 86 86 86 88 89 86 85 89 92 93 90 85 84 88 90 92 95 96 95 92 90 89 90 91 91 91 93 95 90 88 91 93 89 87 92 97 97 97 95 90 88 94 99 101 102 101 101 105 107 105 103 103 99 97 104 111 112 112 114 114 112 111 111 113 114 115 116 116 117
103 102 102 104 103 101 100 99 100 100 98 99 96 87 81 81 81 82 86 89 89 88 90 89 86 88 95 97 95 89 83 86 93 94 95 98 98 96 94 91 91 91 91 92 93 95 95 92 90 94 95 91 88 93 98 98 99 97 88 87 97 104 104 103 103 105 108 108 107 107 106 102 101 107 112 113 115 116 115 113 114 115 116 117 117 117 118 120
107 108 109 109 107 104 103 103 103 103 101 99 95 88 86 87 85 86 91 90 86 87 90 89 88 93 99 98 92 85 83 91 99 98 97 99 98 95 94 92 91 92 92 93 94 95 96 95 94 97 99 95 91 95 98 99 101 97 88 91 102 105 104 105 108 109 109 109 109 109 108 106 107 110 113 114 116 115 114 115 117 117 118 119 119 119 120 121
114 115 114 115 114 111 109 108 108 108 103 97 95 94 94 93 90 93 97 91 86 88 91 90 91 95 98 95 87 84 88 96 100 99 99 99 97 95 95 93 93 93 93 94 95 96 97 98 98 100 102 99 95 97 99 102 102 96 92 97 103 104 105 108 110 109 109 110 110 110 110 110 111 113 114 114 114 113 114 116 118 119 120 121 120 121 122 122
Wind_Direction
233 230 228 226 226 227 230 232 233 234 236 239 240 241 241 242 244 247 251 256 260 264 268 274 280 287 293 297 301 305 308 310 313 315 317 319 322 324 327 329 331 335 337 338 337 337 338 340 341 339 338 337 336 333 331 329 325 323 321 319 317 316 315 314 312 308 304 301 300 302 307 312 313 308 304 302 302 303 304 306 308 309 311 314 317 319 320 319
234 232 230 228 227 227 229 231 233 234 236 238 240 241 241 241 242 244 248 252 255 260 265 271 277 283 289 293 297 301 306 309 311 314 315 317 320 323 325 327 330 333 335 336 335 335 336 338 339 338 336 337 336 334 333 331 329 328 327 324 322 322 320 317 315 313 309 305 301 300 302 305 307 306 302 300 300 301 303 305 306 309 312 315 317 319 318 317
236 233 231 229 228 228 229 230 232 234 235 237 239 241 242 241 242 243 245 248 252 255 262 268 275 279 284 289 294 298 302 307 309 311 313 316 319 321 323 325 328 330 332 333 333 333 334 337 337 336 335 336 336 335 334 332 331 330 330 328 328 330 329 324 321 318 314 311 307 303 301 301 302 302 300 299 298 298 300 303 306 310 313 315 316 317 316 316
239 235 233 230 229 229 229 230 232 233 235 236 239 241 242 242 242 243 245 247 250 253 258 264 271 276 280 285 290 294 299 304 307 310 312 314 316 318 319 322 325 327 329 330 330 331 333 335 335 333 333 334 335 334 334 333 331 330 329 328 329 332 332 328 327 324 320 316 313 309 306 302 300 300 299 297 295 297 300 304 308 312 313 313 314 315 314 315
242 238 235 232 230 229 230 230 231 233 234 236 238 240 242 242 242 243 245 247 249 252 256 260 266 272 277 281 287 292 296 301 305 308 311 313 314 315 316 319 322 324 326 327 328 329 331 333 332 331 330 331 332 332 331 331 329 329 328 327 327 328 328 327 326 326 324 321 317 314 310 306 302 300 299 296 296 299 303 306 309 311 311 311 312 312 312 313
245 241 238 234 232 230 230 230 231 233 234 235 237 239 241 243 243 243 245 247 249 252 256 260 264 269 274 280 285 290 294 299 303 306 309 310 311 312 314 316 319 321 323 324 325 327 329 330 329 328 328 328 329 329 328 328 327 327 326 326 325 326 326 325 325 324 323 321 319 316 313 309 305 303 301 299 301 305 306 308 309 309 309 310 310 311 311 313
247 244 241 237 234 232 231 231 232 233 234 235 237 239 240 242 243 243 245 248 250 253 258 261 264 268 273 278 284 289 293 297 300 303 305 307 308 309 311 313 316 318 320 321 323 326 327 328 327 325 326 326 326 326 326 325 324 324 324 324 324 324 324 324 324 323 322 321 320 318 316 313 310 308 307 307 309 309 308 308 308 308 308 309 310 311 312 314
247 245 243 240 237 235 233 232 232 233 234 235 236 238 240 241 243 244 245 248 251 254 257 262 266 269 273 277 282 287 291 294 297 299 302 304 305 306 308 310 313 316 317 319 322 325 326 327 325 322 323 323 323 323 322 322 321 321 321 321 321 321 322 322 323 322 321 320 319 319 318 316 315 313 312 312 312 310 309 309 308 309 309 310 311 313 314 315
247 245 244 242 240 238 236 234 233 233 234 235 236 238 240 242 243 244 246 247 251 254 258 262 266 270 274 278 282 286 289 292 294 296 299 301 302 303 305 307 310 313 314 317 321 324 326 327 324 319 319 320 321 321 320 319 318 318 318 317 317 318 319 320 321 320 319 318 318 318 317 316 315 313 312 313 312 310 309 309 310 311 311 312 314 315 316 316
248 246 245 244 242 240 238 237 235 234 234 235 237 237 238 241 243 245 246 248 251 255 258 262 266 269 273 277 281 285 288 290 292 295 298 299 300 301 303 305 308 310 312 315 319 323 325 326 324 318 316 319 320 320 319 318 317 316 315 315 315 316 317 318 319 318 317 317 317 317 315 314 313 312 312 311 310 309 310 311 312 313 313 313 315 315 317 317
250 248 246 245 243 242 241 239 238 236 235 236 237 238 238 239 242 244 247 249 252 255 259 262 265 268 272 276 281 284 287 289 291 294 297 298 298 299 301 304 307 309 311 313 317 321 324 325 324 318 314 316 319 319 320 319 318 317 316 315 315 315 316 318 318 318 318 317 316 316 314 313 311 310 310 310 310 310 310 312 312 312 312 314 315 316 317 316
253 251 248 246 244 243 242 241 240 239 238 237 238 239 239 240 241 244 247 250 253 256 260 263 265 268 271 276 280 283 286 289 290 293 295 296 297 298 300 303 305 308 309 312 315 319 322 322 322 319 312 313 317 318 320 320 319 319 317 317 317 317 317 318 319 319 319 319 318 317 315 314 312 310 310 310 310 309 310 311 311 311 313 314 315 316 316 315
255 253 251 249 246 245 243 243 242 241 241 240 239 240 240 241 242 244 247 250 253 257 260 263 265 268 271 275 278 282 285 287 289 291 293 294 295 297 299 301 304 307 308 310 313 316 319 319 319 318 312 310 314 317 318 319 319 320 320 319 319 318 318 318 319 318 319 320 320 321 319 318 318 314 312 311 309 309 310 310 310 311 313 313 314 314 314 313
256 254 252 251 249 247 245 244 243 243 243 243 242 242 242 242 243 245 247 250 253 257 260 263 265 268 271 274 278 282 284 286 288 290 291 293 294 296 298 300 303 306 307 309 311 314 316 317 316 315 311 308 310 313 315 316 318 320 320 321 320 319 318 318 318 317 318 321 321 322 321 320 320 316 314 312 310 310 310 309 309 310 311 311 312 312 312 313
256 255 254 253 251 249 247 246 245 245 244 244 244 244 244 244 244 246 248 251 254 257 261 263 266 269 271 274 277 281 283 285 287 289 291 292 293 294 297 299 302 304 305 306 309 312 314 315 314 313 311 308 307 308 311 314 317 319 319 320 320 319 317 317 317 317 318 320 320 321 321 319 318 315 313 312 310 309 308 307 307 308 307 308 310 311 312 314
258 257 256 255 253 252 250 249 248 247 246 246 246 246 247 247 246 247 249 251 254 258 261 264 267 270 273 276 278 280 282 284 286 289 291 292 293 294 296 298 300 302 304 305 307 310 313 314 313 311 310 308 306 307 309 312 315 316 317 319 321 321 318 315 315 315 317 319 318 319 318 316 314 312 311 310 309 307 305 305 306 306 306 309 311 311 313 315
260 259 258 256 256 255 253 251 250 249 249 249 249 248 248 249 249 249 251 253 255 258 262 265 268 271 274 277 279 281 283 285 286 289 291 292 293 295 295 297 299 300 302 303 306 309 312 313 312 310 308 308 308 308 309 311 313 315 316 318 321 321 319 315 312 312 313 315 315 315 316 314 312 310 309 308 307 306 305 305 306 306 308 311 312 312 314 316
261 261 260 258 257 256 255 253 252 251 251 251 251 251 250 251 252 252 253 255 256 259 262 265 268 272 274 277 279 281 283 285 287 289 291 293 294 295 295 296 298 299 300 302 305 309 311 312 311 309 307 307 308 308 309 310 312 314 316 318 319 320 318 315 312 310 310 311 311 312 313 312 311 309 308 307 306 305 306 307 307 308 311 312 312 314 315 316
262 262 261 260 258 257 256 255 254 253 253 253 253 253 253 253 253 254 255 256 258 259 262 265 268 271 274 277 279 281 282 284 287 290 292 293 294 294 294 296 297 298 299 302 306 308 310 311 310 309 308 307 308 308 308 309 310 313 315 316 317 318 317 316 315 312 311 311 310 310 311 310 309 309 310 308 307 307 307 307 307 309 311 312 313 314 316 316
265 263 261 260 258 257 256 256 255 254 254 254 254 255 255 255 255 255 256 258 259 261 263 265 269 271 273 276 279 281 283 285 288 291 292 293 293 293 293 295 296 297 299 302 306 307 309 311 310 309 309 308 308 308 308 309 310 312 313 314 315 316 316 315 315 314 312 312 310 309 312 312 311 312 312 309 308 308 307 307 308 309 310 311 313 315 316 317
268 266 263 260 259 258 257 257 256 255 256 255 255 255 256 257 257 257 258 260 260 262 264 266 269 271 273 276 278 282 284 286 289 291 292 293 292 291 292 293 294 296 299 302 305 306 308 310 309 309 308 308 308 308 308 309 310 311 312 313 314 315 316 315 315 315 313 312 310 311 314 314 313 313 311 308 307 307 307 308 309 310 311 312 314 316 317 317
270 269 266 263 261 259 259 258 257 256 256 256 256 256 256 257 258 258 260 262 263 263 264 267 269 271 273 276 278 281 283 285 288 290 291 291 290 289 290 291 292 295 299 302 304 305 306 308 308 308 308 307 307 308 309 309 309 310 310 312 313 314 316 316 316 316 314 313 312 313 315 315 313 312 308 306 307 307 308 309 309 310 312 314 316 317 317 317
271 270 269 267 265 262 260 259 258 257 257 257 257 257 257 257 259 259 260 263 265 266 266 267 268 270 272 275 277 279 282 284 286 288 289 289 288 289 289 290 292 296 299 301 303 303 304 306 307 307 307 307 307 307 308 309 309 308 309 310 311 313 315 316 316 316 315 314 313 312 314 316 313 309 306 305 306 307 308 308 308 311 313 315 316 316 316 316
269 269 270 269 267 265 263 261 260 258 258 257 257 257 258 258 259 260 261 262 265 267 268 270 271 272 273 275 277 278 281 283 285 287 289 288 288 289 289 289 292 296 299 300 302 302 302 303 304 305 306 306 306 306 307 307 308 307 307 308 309 310 312 314 315 316 315 314 313 310 312 317 312 307 306 306 306 308 309 309 309 312 314 315 315 315 314 316
266 267 268 269 268 267 265 263 261 260 259 259 258 258 258 259 260 261 262 263 265 267 269 271 273 274 276 277 278 280 282 284 286 288 289 289 289 289 289 290 293 296 298 299 301 301 300 300 300 302 303 304 305 305 306 306 307 306 306 307 308 309 310 312 313 315 314 314 314 310 312 319 313 308 307 306 307 309 309 309 310 313 314 315 314 313 314 315
264 264 265 267 267 267 266 265 264 262 261 260 260 260 259 260 261 262 263 265 266 268 269 271 272 274 276 278 279 281 283 284 286 288 289 289 289 289 289 290 292 295 297 298 299 299 299 300 299 299 301 301 303 304 304 305 306 306 306 306 307 308 310 311 312 313 313 314 313 310 312 318 315 311 308 306 307 308 308 309 311 313 314 314 313 313 314 314
264 264 264 264 265 266 266 266 266 264 263 261 261 261 261 261 262 263 264 265 267 269 270 271 272 273 275 277 279 281 282 284 286 287 288 288 288 288 288 289 291 294 295 296 297 297 299 300 299 299 300 300 301 302 303 304 305 305 305 305 306 308 310 310 312 312 312 313 312 310 312 315 315 311 307 307 309 308 307 309 312 313 313 312 312 313 314 313
264 263 263 264 264 264 264 265 266 266 265 264 263 262 263 263 263 264 266 267 269 270 270 271 273 274 275 276 278 280 281 283 285 286 286 287 287 287 287 288 290 292 293 295 296 296 298 300 300 300 300 300 301 301 302 303 303 303 303 304 305 307 308 309 311 311 311 312 310 310 312 313 315 312 307 308 309 307 306 309 311 312 312 312 313 314 314 313
263 263 263 263 264 263 263 263 264 264 264 264 264 264 264 265 265 266 267 269 270 268 269 271 273 274 275 277 278 279 281 282 283 285 285 286 286 286 286 287 288 291 292 294 295 296 298 300 300 300 300 300 301 301 301 302 302 302 303 303 304 305 306 307 309 309 310 311 309 310 312 312 314 313 309 309 309 305 306 308 310 311 311 312 313 313 313 312
262 262 262 263 263 263 263 263 263 263 264 264 264 264 264 265 265 266 268 270 269 266 268 272 274 275 276 277 278 279 280 281 283 284 284 285 285 285 285 286 287 289 291 293 294 296 298 299 300 300 300 300 301 301 302 302 302 302 302 302 303 305 305 306 307 307 309 310 308 309 311 311 314 312 309 310 308 306 306 308 309 310 311 312 312 312 312 311
261 261 262 262 263 264 263 263 263 263 263 263 263 263 264 264 264 265 268 270 268 267 269 271 272 274 275 276 278 278 278 280 281 282 282 283 283 284 285 285 286 288 291 292 293 295 297 298 299 299 299 300 301 301 301 302 302 301 301 302 303 304 304 305 305 306 308 309 307 308 309 311 314 312 310 310 307 305 307 307 308 310 312 312 312 312 312 311
261 261 261 262 262 263 264 263 263 263 263 263 263 263 264 263 264 267 269 269 267 267 268 269 269 271 272 274 276 276 277 278 279 280 280 281 283 284 285 285 286 288 290 291 292 295 296 297 298 298 299 300 300 301 301 301 301 301 301 302 303 302 302 303 303 304 306 306 306 307 306 310 312 311 310 309 305 305 307 307 308 311 312 312 311 311 310 309
261 261 261 262 263 263 263 263 263 263 263 262 262 262 263 263 265 269 270 269 268 266 266 267 268 269 270 273 275 276 276 277 278 279 279 281 283 284 285 286 287 288 289 289 290 292 293 296 297 298 300 300 301 301 301 302 302 301 301 302 302 302 302 302 302 303 304 304 304 305 305 308 310 310 310 308 306 307 307 307 309 311 312 311 311 311 309 308
261 262 262 263 263 263 264 263 263 263 263 263 263 262 262 264 266 268 269 269 269 267 265 265 265 267 269 271 273 275 275 275 276 277 278 280 281 283 286 287 288 289 290 289 289 289 291 293 295 297 299 300 301 302 302 303 302 301 302 302 301 301 301 301 301 302 302 302 305 305 306 309 311 311 311 307 308 308 306 307 310 311 311 310 311 310 308 308
261 262 262 263 263 264 264 264 264 264 264 264 263 263 265 267 267 267 268 269 269 268 266 265 265 267 268 270 272 274 274 274 275 276 277 279 281 284 286 287 288 290 290 290 290 290 290 292 294 296 297 299 300 301 302 302 300 300 301 300 300 300 300 300 301 303 302 302 305 306 307 311 312 313 311 309 309 307 305 308 311 310 310 310 310 309 309 310
261 262 262 263 263 263 264 264 264 265 265 265 265 266 267 268 268 268 268 268 269 268 268 267 268 269 269 269 271 273 275 275 276 276 277 279 282 285 286 287 289 290 290 290 291 291 291 292 293 295 297 298 299 300 301 299 299 300 300 299 299 299 299 300 301 302 302 302 305 306 308 311 313 312 311 309 307 305 305 309 310 309 310 311 310 310 310 312
262 263 263 264 264 264 264 264 264 264 265 265 266 267 268 268 269 270 269 268 268 269 270 270 270 270 270 271 272 274 275 276 277 277 279 280 283 285 286 287 288 288 289 289 291 292 292 293 294 296 297 298 299 299 298 298 299 300 299 299 300 300 300 301 301 301 301 302 304 306 308 311 312 312 309 306 305 305 307 309 309 309 311 311 311 310 312 312
263 264 265 266 265 265 264 264 264 264 264 266 268 269 268 268 268 269 269 269 269 270 271 272 272 271 272 273 273 274 275 276 278 279 280 281 283 285 285 286 286 287 287 288 290 292 293 294 295 297 298 299 299 298 297 298 299 299 299 300 300 301 301 301 301 302 302 302 303 306 307 310 313 312 308 305 306 308 309 309 309 311 312 312 311 312 313 313
265 265 265 265 265 266 266 266 266 266 267 271 272 271 269 269 268 268 269 270 270 270 271 272 272 272 273 274 274 275 276 277 278 279 281 282 284 284 284 285 285 285 286 287 290 291 292 293 295 296 296 297 297 296 297 298 298 298 299 299 300 301 300 301 301 303 304 303 305 306 306 309 314 311 307 307 309 310 309 308 311 312 313 311 312 313 313 314
266 266 266 265 265 266 266 266 267 270 273 276 275 274 274 272 269 268 270 270 271 271 271 271 272 273 274 274 275 276 276 277 278 280 281 283 284 284 284 284 284 285 285 287 289 291 292 293 294 295 294 294 295 295 296 298 297 298 298 299 301 300 300 301 302 303 304 304 307 307 305 311 316 309 306 310 312 310 308 310 313 313 313 312 313 314 314 315
266 267 267 266 265 266 267 268 270 273 276 277 278 278 276 273 271 270 270 271 272 273 273 273 273 273 274 275 276 276 277 278 280 281 283 284 284 283 283 283 283 284 286 288 289 290 291 292 294 294 293 293 294 294 296 296 296 297 298 300 301 300 301 302 302 304 304 305 309 306 304 314 318 308 309 314 312 309 309 312 314 313 313 313 314 315 316 318
267 268 267 265 265 267 268 270 272 274 275 277 277 275 273 272 273 273 274 275 275 275 274 274 275 276 276 277 277 277 278 280 281 283 284 283 283 283 284 284 285 285 286 288 289 290 290 292 292 292 292 292 293 294 295 295 295 295 298 300 300 300 302 302 303 305 304 306 308 302 304 315 315 308 313 315 310 308 310 313 314 313 313 314 315 316 318 320
266 267 267 266 267 268 269 271 273 274 274 273 271 271 271 272 272 273 274 275 275 275 275 277 278 278 278 278 278 279 280 281 282 283 283 282 282 284 285 285 285 286 287 288 289 289 290 291 291 291 291 292 293 295 295 294 294 295 298 299 299 301 301 302 304 305 304 307 305 300 306 315 311 310 315 313 308 309 311 314 314 314 315 316 316 318 320 321
265 265 266 268 269 269 271 274 275 274 272 271 270 270 271 271 271 271 272 272 273 274 276 277 278 278 278 278 278 280 281 281 282 281 280 281 283 284 285 284 284 285 286 287 288 288 288 289 290 290 290 290 293 294 293 293 294 296 298 298 299 300 300 302 304 303 305 307 302 302 311 314 311 314 316 311 309 311 314 315 314 314 316 317 317 320 320 321
265 265 266 267 268 269 271 274 274 273 272 272 271 270 270 271 271 271 271 271 272 274 275 276 277 277 277 277 278 279 279 280 280 279 280 282 284 284 283 282 283 284 285 286 286 287 287 288 289 290 290 291 293 293 292 293 294 295 297 297 298 299 300 302 304 303 305 304 302 308 314 312 313 317 314 310 310 313 315 314 314 315 316 317 319 320 320 321
266 266 266 267 268 269 270 271 272 273 274 274 272 271 271 271 272 272 273 273 274 275 274 274 274 275 276 278 278 277 277 278 278 280 282 283 282 281 280 281 283 284 284 285 285 286 287 288 290 291 291 292 294 294 293 293 294 295 297 298 299 300 301 304 303 303 305 303 305 313 314 311 316 317 311 310 312 314 315 314 314 315 316 318 320 320 320 321
265 266 268 268 268 267 268 270 271 273 273 272 271 272 272 273 274 275 276 277 276 274 273 273 274 275 275 275 274 274 275 277 279 281 282 281 280 280 280 281 283 284 285 285 286 287 287 288 290 290 290 292 294 294 293 293 294 296 298 300 300 301 303 303 301 303 304 304 308 314 311 312 317 315 310 310 313 314 314 314 314 315 316 319 320 319 320 321
264 265 266 266 266 267 267 268 269 269 269 270 272 273 275 276 278 278 277 277 276 275 275 274 274 274 273 272 272 273 275 277 279 280 280 279 279 279 280 283 284 285 286 286 287 288 288 290 291 291 291 292 294 294 293 293 295 296 298 300 301 303 302 300 301 304 304 304 309 312 310 313 317 312 309 311 312 313 314 314 314 315 317 319 319 319 321 321
265 265 265 264 265 265 265 264 264 265 267 270 272 273 276 278 278 278 277 276 276 275 274 273 273 273 273 272 272 274 276 278 278 278 277 277 278 279 281 283 285 286 287 288 290 290 290 292 293 292 292 292 293 293 293 294 296 296 298 302 303 301 299 300 302 304 303 305 309 309 309 313 313 310 309 311 311 312 313 313 314 316 318 318 318 319 321 321
266 266 265 264 264 264 264 264 264 264 266 267 270 273 275 275 275 275 275 273 273 273 273 274 274 274 272 272 273 275 279 279 277 276 276 277 278 280 282 284 285 287 288 289 290 290 291 293 293 292 292 293 294 293 293 295 295 295 301 305 301 297 298 301 303 302 303 306 308 308 310 312 310 308 309 310 310 311 312 313 314 316 317 317 318 320 320 320
266 265 265 265 266 266 266 265 265 265 265 267 270 272 272 271 271 271 271 270 271 273 274 275 274 272 271 272 275 278 280 278 276 276 276 277 279 281 283 285 286 287 288 289 289 290 292 293 293 292 292 293 294 293 294 294 294 297 303 302 297 297 300 301 300 301 304 306 307 308 309 309 308 308 309 309 310 311 311 312 314 316 316 317 318 319 319 319
266 266 267 266 266 266 267 267 268 268 269 271 271 269 269 269 269 268 268 268 270 272 273 273 272 272 272 274 277 279 277 275 275 276 277 278 280 282 284 285 285 286 288 289 290 291 291 292 293 293 293 294 294 294 294 293 294 299 301 298 296 299 300 299 299 302 304 305 306 307 307 307 308 308 308 309 309 310 311 312 314 315 315 316 318 318 318 318
Height
10860 10860 10860 10860 10861 10861 10861 10862 10862 10863 10863 10863 10864 10864 10864 10864 10863 10863 10863 10862 10862 10861 10861 10860 10860 10859 10858 10857 10856 10855 10854 10852 10851 10849 10848 10847 10845 10843 10842 10840 10838 10837 10835 10834 10832 10830 10829 10828 10826 10824 10822 10820 10818 10815 10813 10810 10807 10804 10802 10801 10801 10800 10799 10798 10798 10798 10797 10796 10795 10794 10794 10796 10796 10793 10789 10784 10778 10775 10773 10772 10771 10770 10769 10768 10766 10764 10762 10760
10857 10857 10858 10858 10858 10859 10859 10859 10860 10860 10861 10861 10861 10861 10861 10861 10861 10861 10860 10860 10859 10859 10858 10858 10857 10857 10856 10855 10854 10853 10852 10851 10849 10848 10846 10845 10843 10841 10839 10838 10836 10835 10833 10831 10830 10828 10826 10824 10823 10822 10821 10819 10817 10814 10812 10809 10806 10803 10801 10799 10798 10798 10796 10795 10794 10794 10794 10793 10792 10790 10790 10791 10792 10791 10787 10783 10778 10774 10771 10769 10768 10767 10766 10764 10762 10760 10758 10756
10855 10855 10855 10855 10856 10856 10856 10857 10857 10858 10858 10858 10858 10859 10859 10859 10858 10858 10858 10857 10857 10856 10856 10855 10855 10854 10854 10853 10852 10851 10850 10849 10848 10846 10845 10843 10841 10839 10838 10836 10834 10833 10831 10830 10828 10826 10824 10822 10820 10818 10817 10816 10814 10812 10810 10807 10805 10802 10800 10797 10796 10796 10794 10792 10791 10791 10790 10789 10789 10787 10786 10785 10786 10786 10784 10780 10776 10772 10769 10767 10766 10764 10762 10760 10758 10757 10755 10753
10852 10852 10853 10853 10853 10853 10854 10854 10855 10855 10855 10856 10856 10856 10856 10856 10856 10856 10855 10855 10854 10854 10853 10853 10852 10852 10851 10851 10850 10849 10848 10847 10846 10844 10843 10841 10840 10838 10836 10834 10833 10831 10829 10828 10826 10824 10822 10820 10818 10815 10813 10812 10811 10808 10806 10804 10802 10800 10798 10795 10795 10795 10793 10790 10788 10787 10787 10786 10785 10784 10783 10781 10780 10781 10780 10777 10774 10771 10768 10766 10764 10762 10760 10757 10755 10754 10752 10750
10850 10850 10850 10850 10850 10850 10851 10851 10852 10852 10853 10853 10853 10853 10853 10853 10853 10853 10853 10852 10852 10851 10851 10850 10850 10849 10849 10848 10848 10847 10846 10845 10844 10842 10841 10839 10838 10836 10834 10832 10831 10829 10828 10826 10824 10822 10820 10818 10817 10814 10812 10810 10808 10806 10803 10801 10799 10797 10795 10793 10792 10792 10791 10789 10787 10785 10784 10783 10782 10781 10781 10779 10776 10775 10775 10774 10771 10769 10767 10764 10762 10760 10757 10755 10754 10752 10750 10748
10847 10847 10847 10847 10847 10847 10848 10848 10849 10849 10850 10850 10850 10850 10850 10850 10851 10851 10850 10850 10849 10848 10848 10848 10847 10847 10846 10845 10845 10844 10844 10843 10842 10840 10839 10837 10835 10834 10832 10830 10829 10828 10826 10824 10822 10820 10818 10816 10815 10813 10811 10808 10806 10804 10801 10798 10796 10794 10793 10790 10788 10787 10787 10786 10785 10783 10782 10781 10779 10778 10777 10775 10773 10771 10770 10768 10767 10766 10764 10761 10759 10757 10755 10753 10752 10750 10748 10746
10844 10844 10844 10844 10844 10844 10845 10845 10845 10846 10846 10847 10847 10847 10847 10847 10848 10848 10847 10847 10846 10846 10845 10845 10844 10844 10844 10843 10842 10842 10841 10840 10839 10838 10837 10835 10833 10832 10830 10828 10827 10826 10824 10822 10820 10819 10817 10815 10813 10812 10809 10807 10804 10802 10799 10796 10794 10792 10790 10788 10785 10784 10783 10782 10781 10780 10779 10778 10777 10775 10774 10772 10769 10767 10764 10762 10761 10760 10758 10757 10755 10753 10752 10750 10749 10747 10744 10742
10840 10840 10840 10841 10841 10841 10842 10842 10842 10843 10843 10843 10844 10844 10844 10844 10845 10845 10845 10844 10843 10843 10842 10842 10841 10841 10841 10840 10840 10839 10838 10838 10837 10836 10835 10833 10831 10829 10828 10826 10825 10823 10822 10820 10818 10816 10814 10812 10810 10810 10808 10805 10803 10800 10798 10795 10792 10790 10787 10786 10784 10781 10780 10778 10777 10777 10775 10774 10773 10772 10770 10768 10765 10762 10759 10757 10756 10754 10752 10751 10750 10749 10747 10745 10744 10742 10740 10737
10836 10836 10837 10837 10838 10838 10838 10839 10839 10839 10840 10840 10840 10841 10841 10841 10841 10841 10841 10841 10841 10840 10839 10839 10838 10838 10838 10837 10837 10836 10835 10835 10834 10833 10832 10831 10829 10827 10825 10824 10823 10821 10820 10818 10816 10813 10811 10809 10807 10807 10805 10803 10801 10799 10796 10793 10790 10788 10785 10783 10781 10780 10778 10776 10774 10773 10772 10771 10770 10769 10767 10764 10762 10759 10756 10753 10751 10748 10747 10746 10744 10743 10741 10740 10738 10736 10734 10732
10832 10832 10833 10833 10834 10835 10835 10836 10836 10836 10837 10837 10837 10837 10838 10838 10838 10838 10838 10838 10838 10837 10836 10836 10835 10835 10835 10835 10834 10833 10833 10832 10831 10830 10829 10828 10826 10824 10822 10821 10820 10819 10817 10815 10813 10811 10808 10806 10805 10804 10802 10800 10798 10796 10794 10792 10789 10786 10784 10781 10779 10777 10775 10774 10772 10770 10769 10768 10767 10767 10765 10762 10758 10755 10753 10751 10747 10744 10742 10740 10739 10737 10735 10734 10732 10731 10729 10726
10828 10829 10829 10830 10830 10831 10832 10832 10833 10833 10834 10834 10834 10834 10834 10835 10835 10835 10835 10835 10835 10834 10834 10833 10833 10832 10832 10832 10831 10830 10830 10829 10828 10827 10826 10825 10823 10821 10819 10818 10817 10815 10814 10812 10811 10808 10805 10803 10801 10800 10799 10797 10796 10794 10792 10790 10787 10785 10782 10779 10777 10775 10773 10771 10769 10768 10766 10765 10764 10764 10763 10761 10757 10752 10750 10748 10745 10742 10739 10736 10734 10732 10730 10728 10727 10725 10723 10720
10825 10825 10826 10826 10827 10827 10828 10829 10830 10830 10830 10831 10831 10831 10831 10832 10832 10832 10832 10832 10832 10831 10831 10830 10830 10829 10829 10829 10828 10827 10827 10826 10825 10824 10823 10822 10820 10818 10816 10814 10813 10812 10810 10809 10807 10805 10803 10800 10798 10797 10796 10794 10793 10791 10789 10787 10785 10782 10780 10777 10775 10772 10770 10768 10766 10764 10763 10762 10761 10760 10759 10758 10756 10752 10748 10745 10742 10739 10736 10733 10730 10727 10725 10723 10721 10719 10717 10714
10821 10822 10822 10822 10823 10824 10824 10825 10826 10826 10827 10827 10828 10828 10828 10829 10829 10829 10829 10829 10829 10828 10828 10827 10827 10826 10826 10826 10825 10824 10823 10823 10822 10821 10820 10818 10817 10815 10812 10811 10809 10808 10806 10805 10804 10802 10800 10797 10795 10793 10792 10791 10790 10788 10786 10784 10782 10780 10777 10774 10772 10769 10767 10765 10764 10762 10760 10759 10758 10757 10754 10753 10752 10749 10746 10742 10739 10736 10733 10729 10726 10722 10720 10718 10716 10714 10711 10709
10817 10818 10818 10819 10819 10820 10821 10821 10822 10823 10823 10824 10824 10825 10825 10826 10826 10826 10826 10826 10826 10825 10825 10824 10823 10823 10823 10822 10822 10821 10820 10819 10819 10818 10816 10815 10813 10811 10809 10807 10805 10804 10802 10801 10800 10799 10797 10794 10791 10790 10788 10787 10786 10784 10783 10781 10779 10777 10774 10772 10769 10766 10763 10761 10759 10757 10755 10754 10752 10751 10749 10746 10745 10743 10740 10737 10733 10731 10728 10724 10721 10719 10716 10714 10712 10709 10707 10704
10813 10814 10814 10815 10816 10817 10817 10818 10818 10819 10819 10820 10821 10821 10822 10822 10823 10823 10823 10823 10823 10822 10821 10821 10820 10819 10819 10819 10819 10817 10816 10815 10815 10814 10812 10811 10810 10808 10806 10803 10801 10800 10798 10797 10796 10795 10793 10791 10788 10786 10784 10783 10782 10780 10779 10777 10775 10773 10771 10769 10767 10764 10760 10757 10755 10752 10750 10749 10746 10745 10744 10741 10739 10737 10734 10731 10728 10726 10724 10720 10718 10715 10713 10711 10709 10706 10703 10700
10809 10810 10811 10811 10812 10813 10814 10815 10815 10815 10815 10816 10817 10818 10818 10819 10819 10820 10819 10819 10819 10819 10818 10817 10816 10816 10815 10815 10815 10814 10812 10811 10811 10810 10809 10808 10806 10805 10802 10800 10798 10796 10794 10793 10792 10791 10789 10787 10785 10782 10780 10778 10777 10776 10774 10773 10771 10769 10767 10765 10763 10761 10758 10755 10752 10749 10747 10745 10743 10741 10740 10737 10735 10733 10730 10727 10724 10721 10719 10717 10714 10712 10709 10707 10704 10701 10699 10696
10805 10806 10807 10808 10809 10810 10810 10811 10811 10811 10812 10812 10813 10814 10815 10815 10815 10816 10816 10816 10816 10815 10814 10813 10813 10812 10811 10810 10810 10809 10808 10807 10807 10807 10805 10804 10802 10801 10798 10796 10794 10792 10790 10789 10787 10786 10785 10783 10781 10778 10776 10774 10773 10771 10769 10767 10766 10765 10762 10760 10758 10756 10755 10753 10750 10748 10746 10743 10740 10739 10737 10734 10731 10730 10727 10723 10720 10717 10714 10712 10709 10705 10703 10700 10697 10695 10693 10690
10801 10802 10803 10804 10805 10805 10806 10807 10807 10807 10808 10809 10809 10810 10811 10811 10811 10812 10812 10812 10812 10812 10811 10809 10809 10808 10806 10806 10805 10805 10804 10803 10803 10803 10801 10799 10798 10796 10794 10793 10791 10788 10786 10785 10783 10781 10780 10779 10777 10775 10773 10770 10768 10767 10765 10763 10761 10759 10758 10756 10754 10751 10749 10749 10748 10745 10744 10741 10736 10736 10735 10730 10727 10726 10723 10720 10715 10711 10708 10705 10702 10698 10695 10693 10690 10687 10685 10683
10797 10798 10798 10799 10800 10801 10802 10802 10803 10803 10803 10804 10805 10806 10807 10807 10808 10808 10807 10808 10808 10808 10807 10806 10805 10804 10802 10801 10800 10800 10799 10798 10798 10798 10796 10795 10794 10792 10790 10788 10787 10785 10782 10780 10779 10776 10775 10774 10772 10771 10769 10767 10765 10763 10761 10759 10757 10755 10753 10751 10749 10747 10744 10742 10743 10740 10739 10737 10732 10731 10731 10725 10721 10720 10718 10714 10709 10705 10702 10699 10695 10692 10690 10686 10683 10681 10678 10675
10793 10793 10794 10795 10795 10796 10797 10797 10798 10799 10799 10800 10801 10802 10803 10803 10804 10804 10803 10803 10804 10804 10803 10802 10801 10800 10798 10797 10795 10795 10794 10794 10794 10793 10791 10790 10789 10787 10785 10784 10782 10781 10778 10776 10774 10772 10771 10769 10767 10766 10764 10762 10761 10759 10757 10755 10753 10751 10749 10747 10745 10744 10740 10737 10737 10736 10733 10732 10727 10725 10725 10719 10714 10713 10711 10706 10702 10700 10697 10694 10691 10688 10685 10682 10679 10676 10672 10668
10789 10789 10790 10790 10791 10792 10792 10793 10794 10795 10795 10795 10796 10797 10798 10799 10799 10800 10800 10799 10799 10799 10798 10798 10797 10796 10794 10792 10791 10791 10789 10788 10789 10788 10787 10786 10784 10782 10781 10779 10778 10776 10774 10772 10770 10767 10767 10766 10763 10761 10760 10758 10757 10755 10753 10750 10748 10747 10745 10743 10740 10739 10737 10733 10732 10731 10728 10726 10723 10720 10720 10714 10707 10706 10703 10700 10697 10695 10692 10689 10686 10684 10681 10678 10674 10670 10665 10660
10786 10786 10786 10786 10787 10788 10788 10788 10789 10790 10790 10790 10791 10792 10793 10794 10795 10796 10796 10794 10794 10795 10794 10793 10793 10791 10789 10788 10787 10786 10785 10784 10784 10783 10782 10781 10779 10778 10777 10775 10774 10772 10770 10768 10766 10763 10762 10762 10759 10757 10756 10754 10752 10751 10749 10746 10743 10742 10741 10739 10736 10734 10733 10730 10727 10726 10723 10721 10718 10716 10715 10711 10703 10698 10695 10694 10693 10690 10687 10684 10680 10677 10675 10671 10667 10663 10658 10653
10782 10782 10782 10783 10783 10783 10784 10784 10784 10785 10785 10786 10786 10787 10788 10789 10790 10791 10791 10791 10789 10788 10788 10788 10788 10787 10785 10784 10783 10782 10781 10780 10779 10778 10777 10776 10774 10773 10772 10770 10769 10768 10765 10763 10761 10758 10756 10757 10755 10752 10751 10749 10748 10747 10745 10742 10738 10736 10735 10734 10731 10728 10728 10727 10724 10722 10719 10716 10714 10713 10713 10710 10701 10692 10687 10686 10686 10683 10680 10677 10673 10670 10667 10664 10660 10655 10651 10646
10778 10778 10778 10779 10779 10779 10780 10779 10779 10780 10781 10781 10781 10782 10783 10784 10786 10786 10786 10788 10786 10783 10782 10783 10782 10780 10779 10779 10778 10777 10776 10775 10774 10773 10772 10770 10769 10768 10767 10766 10764 10763 10761 10758 10756 10753 10751 10752 10751 10748 10746 10744 10743 10742 10741 10739 10734 10730 10729 10728 10727 10724 10722 10722 10721 10719 10716 10712 10708 10706 10711 10712 10700 10687 10680 10677 10676 10675 10672 10668 10665 10663 10660 10656 10652 10648 10644 10640
10773 10773 10774 10774 10774 10775 10775 10775 10775 10775 10776 10777 10777 10777 10777 10779 10780 10781 10781 10784 10783 10779 10777 10778 10777 10773 10772 10772 10771 10771 10771 10769 10768 10767 10766 10764 10763 10762 10761 10760 10759 10758 10756 10754 10751 10747 10746 10746 10745 10743 10741 10739 10738 10736 10735 10734 10731 10726 10723 10722 10721 10718 10717 10715 10714 10714 10712 10708 10702 10696 10703 10711 10701 10685 10676 10671 10668 10667 10663 10660 10658 10655 10653 10650 10646 10641 10637 10633
10767 10768 10769 10768 10769 10770 10771 10771 10770 10771 10772 10772 10772 10772 10772 10774 10775 10776 10776 10778 10780 10776 10772 10773 10771 10767 10767 10766 10765 10766 10765 10763 10762 10761 10760 10758 10757 10756 10755 10753 10753 10753 10751 10750 10747 10742 10741 10741 10738 10738 10736 10734 10732 10730 10728 10728 10726 10723 10718 10716 10714 10712 10711 10709 10707 10706 10705 10705 10698 10688 10693 10704 10699 10684 10671 10667 10665 10661 10656 10654 10652 10650 10647 10644 10639 10635 10631 10625
10762 10763 10763 10763 10764 10765 10766 10765 10764 10766 10767 10767 10768 10767 10767 10769 10769 10771 10771 10773 10777 10774 10767 10766 10764 10763 10762 10760 10760 10760 10759 10758 10757 10756 10754 10753 10752 10750 10749 10747 10747 10747 10745 10745 10743 10737 10736 10736 10733 10732 10730 10728 10727 10725 10723 10721 10720 10718 10714 10711 10708 10705 10704 10702 10701 10699 10698 10700 10692 10682 10685 10694 10695 10681 10666 10663 10661 10655 10650 10648 10647 10644 10641 10637 10632 10628 10623 10617
10756 10757 10758 10758 10758 10759 10760 10759 10759 10760 10761 10761 10762 10761 10763 10764 10764 10766 10765 10768 10774 10771 10762 10759 10757 10757 10756 10755 10756 10755 10753 10752 10752 10751 10749 10747 10747 10744 10743 10742 10741 10741 10739 10739 10738 10733 10731 10731 10727 10726 10724 10722 10721 10719 10716 10715 10713 10711 10708 10705 10702 10700 10698 10695 10695 10692 10692 10694 10687 10678 10678 10683 10688 10676 10660 10658 10656 10648 10644 10642 10641 10638 10634 10631 10625 10620 10616 10609
10749 10751 10752 10753 10752 10752 10753 10754 10753 10754 10754 10755 10756 10757 10758 10758 10760 10761 10760 10765 10770 10765 10757 10753 10752 10750 10749 10750 10751 10750 10748 10747 10745 10745 10743 10742 10741 10738 10736 10735 10734 10735 10733 10732 10731 10728 10726 10725 10722 10721 10719 10716 10715 10712 10710 10707 10706 10703 10701 10699 10696 10694 10692 10689 10689 10685 10686 10688 10681 10674 10672 10673 10680 10671 10653 10651 10648 10639 10636 10635 10633 10631 10627 10624 10618 10613 10608 10602
10743 10744 10746 10747 10746 10746 10747 10747 10747 10748 10748 10749 10750 10751 10752 10753 10755 10755 10757 10762 10762 10757 10753 10749 10746 10744 10744 10744 10745 10744 10742 10741 10740 10739 10737 10736 10735 10731 10728 10727 10727 10728 10727 10725 10725 10723 10721 10719 10717 10715 10713 10711 10709 10706 10703 10700 10698 10695 10693 10691 10689 10687 10684 10683 10682 10677 10679 10681 10674 10670 10667 10665 10670 10665 10649 10644 10638 10630 10628 10626 10624 10623 10620 10616 10610 10605 10600 10594
10736 10738 10740 10740 10739 10739 10739 10740 10741 10741 10741 10742 10743 10745 10746 10748 10750 10751 10755 10755 10750 10749 10748 10743 10740 10739 10738 10739 10739 10738 10736 10734 10733 10732 10732 10731 10729 10725 10721 10719 10719 10721 10721 10717 10716 10719 10716 10713 10711 10709 10706 10705 10702 10699 10697 10694 10690 10687 10684 10683 10682 10679 10677 10677 10675 10671 10672 10673 10668 10665 10662 10659 10661 10656 10645 10638 10631 10624 10621 10618 10616 10615 10612 10607 10601 10597 10591 10584
10729 10731 10732 10732 10732 10732 10731 10732 10734 10734 10734 10736 10737 10739 10740 10742 10746 10749 10749 10744 10740 10742 10740 10735 10736 10734 10733 10734 10733 10731 10730 10728 10727 10726 10725 10725 10723 10719 10714 10710 10708 10711 10715 10711 10709 10712 10711 10708 10704 10702 10700 10698 10695 10693 10690 10687 10682 10678 10675 10673 10672 10670 10668 10670 10668 10665 10666 10665 10662 10659 10657 10656 10655 10648 10639 10630 10623 10619 10615 10610 10608 10607 10603 10598 10593 10589 10583 10575
10723 10724 10725 10726 10726 10724 10723 10725 10726 10726 10727 10728 10730 10733 10734 10738 10744 10744 10739 10733 10731 10734 10732 10729 10730 10728 10728 10730 10727 10725 10724 10722 10721 10719 10718 10719 10718 10714 10708 10703 10699 10699 10704 10705 10705 10706 10707 10705 10698 10695 10694 10690 10688 10685 10681 10679 10674 10669 10666 10663 10662 10658 10656 10660 10659 10658 10659 10659 10656 10652 10650 10652 10649 10643 10634 10622 10614 10611 10606 10601 10601 10599 10594 10589 10585 10580 10573 10565
10715 10717 10717 10719 10717 10716 10716 10717 10718 10718 10719 10721 10723 10727 10730 10736 10740 10736 10730 10725 10722 10724 10726 10723 10723 10723 10724 10724 10721 10719 10716 10715 10716 10713 10711 10713 10711 10709 10704 10697 10691 10689 10690 10693 10697 10700 10703 10703 10695 10690 10689 10685 10682 10678 10674 10672 10666 10661 10659 10655 10653 10648 10644 10646 10648 10648 10648 10650 10651 10646 10642 10644 10641 10636 10627 10614 10608 10602 10595 10594 10594 10590 10585 10581 10577 10570 10562 10556
10708 10709 10710 10710 10708 10707 10707 10708 10710 10710 10710 10714 10716 10721 10729 10733 10731 10726 10722 10719 10714 10715 10716 10716 10717 10718 10719 10718 10715 10712 10708 10707 10710 10707 10705 10706 10705 10705 10700 10690 10684 10681 10677 10678 10684 10690 10696 10697 10692 10687 10684 10680 10676 10673 10668 10664 10658 10656 10654 10648 10645 10642 10636 10635 10637 10637 10634 10638 10644 10641 10638 10637 10633 10628 10617 10605 10601 10593 10586 10589 10586 10580 10577 10573 10568 10560 10552 10546
10700 10702 10704 10703 10699 10698 10698 10700 10701 10700 10702 10705 10709 10718 10726 10725 10721 10717 10715 10712 10705 10705 10707 10709 10712 10712 10711 10711 10708 10705 10700 10699 10702 10700 10699 10699 10699 10700 10694 10684 10679 10673 10667 10665 10669 10677 10685 10690 10687 10681 10679 10675 10670 10667 10662 10655 10649 10649 10646 10639 10637 10635 10630 10626 10627 10628 10623 10624 10634 10635 10633 10632 10627 10622 10611 10597 10591 10585 10581 10582 10578 10571 10569 10564 10557 10548 10542 10536
10692 10695 10697 10696 10690 10688 10690 10690 10690 10692 10694 10696 10703 10715 10718 10715 10713 10708 10704 10702 10699 10698 10700 10703 10706 10703 10702 10703 10702 10698 10692 10691 10693 10692 10691 10691 10693 10694 10686 10678 10673 10667 10659 10656 10659 10665 10670 10679 10682 10675 10672 10669 10664 10660 10654 10647 10642 10640 10636 10630 10628 10626 10622 10618 10616 10618 10614 10611 10621 10627 10626 10625 10619 10612 10605 10591 10582 10579 10576 10573 10568 10564 10561 10554 10546 10537 10532 10526
10684 10688 10692 10690 10680 10677 10681 10680 10680 10683 10684 10689 10701 10709 10708 10707 10705 10698 10692 10692 10693 10693 10693 10695 10696 10694 10694 10695 10693 10690 10685 10684 10684 10683 10683 10684 10686 10686 10680 10671 10666 10660 10653 10648 10652 10656 10656 10665 10674 10670 10663 10661 10657 10652 10645 10640 10636 10631 10626 10622 10619 10615 10614 10611 10606 10605 10603 10597 10604 10614 10618 10620 10612 10600 10591 10582 10575 10572 10567 10562 10558 10555 10551 10542 10534 10527 10521 10516
10677 10680 10686 10684 10670 10665 10672 10672 10670 10673 10677 10687 10697 10698 10698 10699 10696 10689 10683 10682 10683 10685 10686 10688 10685 10683 10687 10687 10683 10680 10676 10675 10676 10674 10675 10677 10678 10676 10671 10664 10658 10651 10646 10643 10645 10648 10645 10651 10664 10665 10658 10654 10650 10643 10637 10633 10626 10621 10617 10614 10612 10607 10604 10604 10599 10595 10591 10584 10588 10595 10602 10613 10608 10589 10578 10573 10569 10562 10555 10551 10549 10545 10540 10530 10523 10517 10511 10505
10668 10670 10678 10677 10660 10654 10660 10661 10662 10667 10673 10683 10688 10688 10690 10689 10686 10681 10676 10672 10673 10675 10678 10679 10676 10675 10678 10675 10673 10671 10665 10665 10668 10667 10667 10669 10667 10665 10661 10655 10648 10641 10638 10638 10638 10638 10635 10639 10651 10656 10652 10648 10644 10636 10632 10626 10617 10611 10608 10606 10604 10597 10593 10594 10594 10591 10582 10574 10577 10575 10579 10600 10598 10576 10569 10568 10559 10550 10542 10540 10540 10533 10527 10519 10512 10506 10500 10494
10656 10660 10670 10668 10651 10645 10647 10650 10658 10664 10668 10676 10680 10678 10678 10677 10676 10675 10669 10664 10664 10665 10667 10668 10668 10667 10667 10665 10663 10659 10653 10656 10660 10658 10659 10660 10655 10652 10650 10645 10639 10634 10629 10630 10631 10629 10625 10629 10639 10645 10643 10640 10637 10630 10625 10619 10610 10603 10601 10600 10594 10587 10583 10580 10583 10587 10575 10567 10571 10559 10560 10588 10583 10558 10560 10561 10546 10537 10531 10531 10530 10522 10515 10508 10501 10495 10488 10482
10646 10652 10659 10654 10644 10640 10636 10641 10654 10659 10662 10670 10669 10665 10664 10666 10667 10667 10663 10658 10656 10656 10655 10656 10658 10658 10657 10656 10652 10648 10645 10648 10651 10650 10649 10649 10644 10641 10638 10634 10629 10626 10623 10622 10623 10619 10615 10620 10628 10632 10633 10631 10628 10625 10618 10610 10602 10597 10597 10595 10586 10580 10577 10570 10570 10575 10567 10564 10563 10543 10548 10578 10568 10545 10551 10549 10533 10525 10523 10522 10519 10510 10504 10496 10489 10484 10476 10470
10637 10641 10644 10641 10638 10634 10629 10636 10648 10650 10654 10658 10654 10652 10654 10656 10659 10660 10658 10652 10647 10647 10645 10646 10650 10649 10648 10646 10641 10639 10638 10637 10641 10641 10635 10635 10637 10633 10628 10623 10619 10616 10615 10615 10613 10610 10607 10610 10615 10619 10623 10621 10619 10617 10609 10599 10592 10591 10592 10586 10577 10574 10569 10562 10562 10559 10557 10562 10550 10530 10543 10564 10552 10539 10541 10532 10519 10515 10513 10512 10507 10497 10492 10484 10476 10472 10465 10457
10624 10626 10631 10633 10630 10625 10625 10633 10638 10637 10641 10642 10641 10644 10644 10644 10650 10652 10649 10643 10639 10638 10638 10640 10642 10639 10638 10635 10631 10632 10630 10626 10629 10629 10623 10624 10629 10626 10618 10612 10609 10608 10607 10606 10604 10601 10600 10602 10604 10606 10609 10612 10613 10608 10597 10589 10584 10585 10586 10577 10570 10567 10559 10556 10555 10547 10548 10554 10536 10523 10538 10546 10535 10532 10529 10514 10504 10505 10504 10499 10493 10485 10479 10472 10466 10460 10453 10446
10608 10612 10620 10623 10620 10618 10622 10627 10625 10622 10627 10628 10628 10633 10633 10633 10641 10642 10637 10635 10634 10632 10631 10633 10632 10628 10627 10625 10623 10622 10619 10616 10614 10614 10616 10618 10618 10615 10607 10599 10600 10600 10599 10597 10594 10592 10592 10594 10596 10594 10592 10597 10604 10599 10586 10579 10577 10577 10578 10571 10564 10559 10551 10548 10545 10535 10536 10535 10524 10523 10527 10525 10524 10521 10510 10498 10491 10494 10495 10486 10479 10474 10466 10461 10456 10448 10442 10435
10593 10600 10611 10614 10610 10611 10616 10617 10611 10610 10616 10615 10612 10618 10623 10625 10630 10631 10627 10628 10629 10624 10621 10622 10621 10619 10619 10617 10612 10608 10607 10606 10601 10603 10611 10610 10604 10601 10594 10590 10592 10592 10590 10588 10585 10583 10583 10587 10591 10584 10577 10582 10588 10584 10573 10566 10566 10567 10566 10563 10556 10549 10543 10538 10529 10525 10521 10510 10513 10526 10513 10504 10518 10510 10488 10483 10482 10482 10483 10474 10466 10461 10453 10448 10443 10435 10430 10423
10582 10592 10604 10602 10595 10598 10606 10607 10603 10602 10602 10596 10594 10605 10615 10617 10620 10622 10620 10619 10617 10611 10608 10612 10613 10611 10610 10606 10596 10594 10599 10599 10594 10596 10600 10595 10589 10585 10582 10584 10586 10584 10582 10577 10575 10574 10572 10578 10584 10574 10567 10573 10575 10568 10558 10552 10553 10557 10556 10553 10545 10538 10535 10525 10514 10516 10509 10490 10502 10521 10502 10491 10508 10495 10469 10469 10472 10470 10468 10461 10453 10447 10440 10436 10430 10422 10418 10410
10575 10586 10592 10586 10579 10586 10597 10599 10593 10586 10582 10581 10585 10597 10607 10610 10613 10612 10609 10605 10602 10600 10598 10600 10604 10603 10597 10590 10583 10584 10593 10594 10589 10587 10583 10578 10574 10570 10572 10578 10578 10575 10572 10567 10567 10564 10559 10567 10574 10562 10556 10564 10565 10556 10545 10538 10540 10545 10549 10546 10535 10527 10522 10513 10506 10508 10498 10482 10493 10506 10494 10490 10496 10477 10456 10458 10461 10458 10455 10447 10441 10435 10430 10425 10417 10410 10406 10398
10566 10573 10576 10571 10566 10572 10580 10583 10578 10572 10574 10576 10577 10589 10601 10603 10602 10601 10596 10591 10589 10591 10586 10583 10592 10593 10581 10575 10572 10575 10588 10589 10578 10574 10569 10562 10559 10559 10564 10570 10568 10565 10563 10559 10558 10553 10546 10555 10561 10550 10543 10552 10555 10544 10532 10529 10528 10531 10541 10543 10527 10512 10506 10501 10500 10499 10487 10480 10487 10487 10483 10492 10489 10463 10449 10450 10448 10445 10441 10433 10428 10424 10419 10412 10404 10399 10393 10385
10556 10556 10556 10551 10550 10558 10563 10565 10564 10565 10570 10566 10567 10587 10597 10590 10589 10589 10580 10575 10576 10579 10574 10573 10583 10580 10563 10559 10562 10571 10585 10578 10559 10558 10557 10548 10548 10552 10555 10559 10559 10556 10554 10551 10548 10541 10536 10542 10546 10536 10528 10539 10547 10533 10521 10521 10515 10517 10537 10540 10515 10496 10496 10494 10490 10486 10479 10476 10478 10472 10470 10481 10478 10457 10446 10444 10437 10431 10426 10419 10415 10411 10405 10398 10392 10387 10380 10373
10539 10534 10534 10531 10535 10544 10544 10544 10548 10549 10556 10561 10567 10582 10581 10572 10578 10574 10559 10561 10570 10569 10564 10566 10569 10561 10546 10546 10557 10570 10577 10560 10540 10544 10545 10536 10540 10546 10545 10548 10550 10546 10544 10543 10538 10533 10528 10527 10531 10523 10512 10523 10534 10523 10514 10511 10502 10511 10533 10527 10499 10488 10490 10486 10478 10476 10473 10467 10465 10462 10461 10464 10461 10450 10444 10439 10429 10421 10414 10407 10402 10398 10392 10386 10381 10375 10368 10361
10518 10512 10517 10515 10514 10523 10527 10529 10530 10530 10544 10559 10563 10564 10560 10559 10566 10555 10541 10553 10565 10558 10552 10553 10552 10542 10534 10542 10557 10563 10556 10539 10529 10533 10532 10527 10532 10537 10536 10538 10539 10537 10536 10533 10527 10523 10519 10514 10515 10508 10498 10507 10518 10511 10504 10498 10495 10509 10521 10506 10490 10486 10481 10473 10469 10470 10468 10459 10452 10452 10452 10450 10445 10438 10435 10431 10423 10415 10406 10399 10393 10386 10378 10374 10370 10364 10356 10349